EW3359 Weather Reports


Display with metric or nautical units.
time (UTC)temp
F
wind
direction
speed
MPH
gust
MPH
rain 1hr
in
rain 24hr
in
rain mn
in
humidity
%
barometer
mb
20260902071600 63 208 0.0 2.0 0.00 0.00 0.00 71 1019.6
20260902070054 61 214 0.0 0.0 0.00 0.00 0.00 73 1019.9
20260902064601 61 214 0.0 2.0 0.00 0.00 0.00 74 1019.8
20260902063053 57 309 0.0 0.0 0.00 0.00 0.00 78 1019.8
20260902061603 57 309 0.0 0.0 0.00 0.00 0.00 77 1020.0
20260902060046 56 309 0.0 0.0 0.00 0.00 0.00 78 1020.1
20260902054549 58 309 0.0 2.0 0.00 0.00 0.00 73 1019.7
20260902053047 58 309 0.0 1.0 0.00 0.00 0.00 74 1019.5
20260902051539 57 309 0.0 0.0 0.00 0.00 0.00 75 1019.4
20260902050037 57 309 0.0 0.0 0.00 0.00 0.00 75 1019.2
20260902044535 57 309 0.0 0.0 0.00 0.00 0.00 73 1019.3
20260902043034 57 309 0.0 0.0 0.00 0.00 0.00 74 1019.3
20260902041535 57 309 0.0 0.0 0.00 0.00 0.00 76 1019.3
20260902040034 57 309 0.0 0.0 0.00 0.00 0.00 77 1019.3
20260902034530 57 309 0.0 0.0 0.00 0.00 0.00 76 1019.3
20260902033028 57 309 0.0 1.0 0.00 0.00 0.00 76 1019.2
20260902031525 58 309 0.0 0.0 0.00 0.00 0.00 74 1019.2
20260902030024 58 309 0.0 0.0 0.00 0.00 0.00 73 1019.0
20260902024521 58 309 0.0 0.0 0.00 0.00 0.00 71 1019.1
20260902023022 59 309 0.0 0.0 0.00 0.00 0.00 72 1018.9
20260902021518 59 309 0.0 0.0 0.00 0.00 0.00 69 1018.9
20260902020016 60 309 0.0 0.0 0.00 0.00 0.00 69 1019.0
20260902014530 60 309 0.0 0.0 0.00 0.00 0.00 69 1018.9
20260902013015 60 309 0.0 0.0 0.00 0.00 0.00 70 1018.7
20260902011532 60 309 0.0 0.0 0.00 0.00 0.00 70 1018.9
20260902010013 60 309 0.0 2.0 0.00 0.00 0.00 69 1018.9
20260902004511 60 304 0.0 0.0 0.00 0.00 0.00 70 1018.8
20260902003012 60 304 0.0 0.0 0.00 0.00 0.00 69 1018.8
20260902001508 61 304 0.0 0.0 0.00 0.00 0.00 68 1018.7
20260902000007 61 304 0.0 0.0 0.00 0.00 0.00 68 1018.7
20260901234506 61 304 0.0 0.0 0.00 0.00 0.00 68 1018.6
20260901233004 62 304 0.0 0.0 0.00 0.00 0.00 69 1018.5
20260901231503 62 304 0.0 0.0 0.00 0.00 0.00 68 1018.4
20260901230004 62 304 0.0 0.0 0.00 0.00 0.00 67 1018.6
20260901224501 62 304 0.0 0.0 0.00 0.00 0.00 68 1018.5
20260901223101 63 304 0.0 0.0 0.00 0.00 0.00 66 1018.3
20260901221700 63 304 0.0 0.0 0.00 0.00 0.00 66 1018.4
20260901220056 64 304 0.0 0.0 0.00 0.00 0.00 64 1018.3
20260901214602 65 304 0.0 0.0 0.00 0.00 0.00 62 1018.3
20260901213107 65 304 0.0 0.0 0.00 0.00 0.00 62 1018.2
20260901211555 66 302 0.0 0.0 0.00 0.00 0.00 59 1018.1
20260901210112 66 302 0.0 0.0 0.00 0.00 0.00 60 1018.0
20260901204554 67 302 0.0 0.0 0.00 0.00 0.00 58 1018.0
20260901203055 67 300 0.0 0.0 0.00 0.00 0.00 58 1017.8
20260901201553 68 290 1.0 4.0 0.00 0.00 0.00 56 1017.7
20260901200100 68 283 1.0 3.0 0.00 0.00 0.00 57 1017.6
20260901194555 69 277 0.0 2.0 0.00 0.00 0.00 54 1017.3
20260901193052 70 338 0.0 0.0 0.00 0.00 0.00 53 1017.1
20260901191554 70 328 0.0 2.0 0.00 0.00 0.00 52 1017.0
20260901190054 70 232 0.0 2.0 0.00 0.00 0.00 54 1016.6
20260901184603 71 227 0.0 2.0 0.00 0.00 0.00 52 1016.4
20260901183104 71 227 0.0 0.0 0.00 0.00 0.00 52 1016.3
20260901181550 71 227 0.0 0.0 0.00 0.00 0.00 55 1016.0
20260901180050 72 227 0.0 1.0 0.00 0.00 0.00 50 1015.8
20260901174549 73 200 0.0 4.0 0.00 0.00 0.00 48 1015.6
20260901173049 75 298 0.0 3.0 0.00 0.00 0.00 47 1015.4
20260901171556 75 198 0.0 7.0 0.00 0.00 0.00 47 1015.1
20260901170050 75 191 1.0 7.0 0.00 0.00 0.00 46 1015.0
20260901164548 76 215 1.0 7.0 0.00 0.00 0.00 45 1015.1
20260901163055 77 191 2.0 12.0 0.00 0.00 0.00 45 1014.9
20260901161550 77 175 2.0 6.0 0.00 0.00 0.00 45 1014.7
20260901160046 77 182 3.0 8.0 0.00 0.00 0.00 45 1014.6
20260901154609 78 177 2.0 6.0 0.00 0.00 0.00 44 1014.5
20260901153048 79 199 2.0 7.0 0.00 0.00 0.00 44 1014.5
20260901151545 80 175 2.0 7.0 0.00 0.00 0.00 42 1014.5
20260901150054 80 183 1.0 8.0 0.00 0.00 0.00 43 1014.4
20260901144544 80 184 2.0 8.0 0.00 0.00 0.00 42 1014.6
20260901143042 80 324 1.0 8.0 0.00 0.00 0.00 42 1014.5
20260901141555 81 184 0.0 7.0 0.00 0.00 0.00 42 1014.6
20260901140050 81 177 2.0 6.0 0.00 0.00 0.00 40 1014.7
20260901134539 81 179 1.0 9.0 0.00 0.00 0.00 41 1014.8
20260901133038 81 150 1.0 8.0 0.00 0.00 0.00 41 1015.1
20260901131536 80 202 2.0 7.0 0.00 0.00 0.00 42 1015.3
20260901130033 80 167 2.0 8.0 0.00 0.00 0.00 41 1015.5
20260901124539 80 185 0.0 8.0 0.00 0.00 0.00 43 1015.6
20260901123030 80 175 0.0 9.0 0.00 0.00 0.00 41 1015.8
20260901121528 80 167 0.0 6.0 0.00 0.00 0.00 41 1016.0
20260901120026 79 194 0.0 9.0 0.00 0.00 0.00 43 1016.3
20260901114523 78 187 0.0 4.0 0.00 0.00 0.00 43 1016.4
20260901113021 77 195 1.0 6.0 0.00 0.00 0.00 45 1016.6
20260901111519 77 222 1.0 8.0 0.00 0.00 0.00 44 1016.9
20260901110016 76 210 1.0 6.0 0.00 0.00 0.00 46 1017.1
20260901104512 76 195 1.0 5.0 0.00 0.00 0.00 47 1017.2
20260901103009 75 249 1.0 7.0 0.00 0.00 0.00 47 1017.4
20260901101505 75 176 2.0 8.0 0.00 0.00 0.00 50 1017.6
20260901100002 74 152 0.0 4.0 0.00 0.00 0.00 51 1017.9
20260901094601 72 176 0.0 4.0 0.00 0.00 0.00 54 1018.1
20260901093055 72 166 0.0 3.0 0.00 0.00 0.00 52 1018.3
20260901091601 71 176 0.0 4.0 0.00 0.00 0.00 53 1018.5
20260901090057 70 171 0.0 4.0 0.00 0.00 0.00 57 1018.6
20260901084542 69 170 0.0 3.0 0.00 0.00 0.00 58 1018.8
20260901083039 68 171 0.0 4.0 0.00 0.00 0.00 60 1018.8
20260901081535 67 180 0.0 6.0 0.00 0.00 0.00 64 1018.9
20260901080037 67 145 0.0 3.0 0.00 0.01 0.00 64 1019.0
20260901074526 65 184 0.0 4.0 0.00 0.01 0.00 66 1019.1
20260901073021 64 184 0.0 3.0 0.00 0.01 0.00 70 1019.4